Location: Derby
(52.9213°N, 1.4761°W)
Time: 02:31:46
(UTC+01:00)

A-11 Canister half - Pass Details

Date: 23 May 2025
Orbit: 1524 x 1684 km, 47.3° (Epoch: 12 June)

Event Time Altitude Azimuth Distance (km) Brightness Sun altitude
Rises 01:15:49 0° 285° (WNW) 4,788 11.7 -16.4°
Reaches altitude 10° 01:19:14 10° 276° (W) 3,825 11.1 -16.4°
Maximum altitude 01:27:34 34° 217° (SW) 2,476 9.6 -16.3°
Enters shadow 01:33:29 19° 168° (SSE) 3,256 10.1 -16.2°
